[Iaude] MPEC K05: 2024 JT17 [a=2.05,e=0.50,i=5.7,H=25.9]
    mpec at cfa.harvard.edu 
    mpec at cfa.harvard.edu
       
    Thu May 16 09:26:26 EDT 2024
    
    
  
M.P.E.C. 2024-K05                                  Issued 2024 May 16, 13:24 UT
     The Minor Planet Electronic Circulars contain information on unusual
         minor planets, routine data on comets and natural satellites,
         and occasional editorial announcements.  They are published
    on behalf of Division F of the International Astronomical Union by the
          Minor Planet Center, Smithsonian Astrophysical Observatory,
                          Cambridge, MA 02138, U.S.A.
			  
             Prepared using the Tamkin Foundation Computer Network
                              MPC at CFA.HARVARD.EDU
            URL https://www.minorplanetcenter.net/    ISSN 1523-6714
                                   2024 JT17                                    
Observations:
     K24J17T*1C2024 05 15.20092612 30 32.980+19 13 46.02         19.39GVEK005G96
     K24J17T 1C2024 05 15.21227212 30 56.387+19 15 34.16         19.99GVEK005G96
     K24J17T 1C2024 05 15.21795112 31 08.281+19 16 29.03         20.12GVEK005G96
     K24J17T KC2024 05 15.29379812 33 47.077+19 28 22.15         19.70GVEK005I52
     K24J17T KC2024 05 15.29476512 33 49.122+19 28 31.15         19.75GVEK005I52
     K24J17T KC2024 05 15.29573412 33 51.188+19 28 40.26         19.89GVEK005I52
     K24J17T KC2024 05 15.29670712 33 53.248+19 28 49.19         19.68GVEK005I52
     K24J17T KB2024 05 15.88265 12 56 40.615+20 59 53.02         19.8 GXEK005J57
     K24J17T KB2024 05 15.89656 12 57 12.300+21 01 58.80         19.7 GXEK005J57
     K24J17T KB2024 05 15.95290 12 59 15.25 +21 09 21.0                XEK005M45
     K24J17T KC2024 05 15.95788812 59 34.327+21 09 57.38         19.6 GVEK005J95
     K24J17T KB2024 05 15.96058 12 59 33.28 +21 10 25.5          19.5 GXEK005M45
     K24J17T KC2024 05 15.96059412 59 40.649+21 10 21.29         19.3 GVEK005J95
     K24J17T KC2024 05 15.96344512 59 47.258+21 10 45.73         19.7 GVEK005J95
     K24J17T KC2024 05 15.96668112 59 54.787+21 11 14.53         19.6 GVEK005J95
     K24J17T KC2024 05 16.14666513 07 20.26 +21 38 41.6          20.2 GVEK005H21
     K24J17T KC2024 05 16.14864213 07 24.89 +21 38 58.6          20.2 GVEK005H21
     K24J17T KC2024 05 16.15061813 07 29.51 +21 39 15.7          20.1 GVEK005H21
     K24J17T KC2024 05 16.15259513 07 34.15 +21 39 32.5          19.9 GVEK005H21
     K24J17T KB2024 05 16.49346413 21 53.900+22 26 47.84         19.7 GXEK005Q06
     K24J17T KB2024 05 16.50055213 22 11.030+22 27 45.66         19.6 GXEK005Q06
     K24J17T KB2024 05 16.50755313 22 27.968+22 28 40.59         19.6 GXEK005Q06
Observer details:
G96 Mt. Lemmon Survey.  Observer D. Rankin.  Measurers T. Beuden, V. F.
    Carvajal, D. Fay, J. B. Fazekas, D. C. Fuls, A. R. Gibbs, A. D. Grauer, H.
    Groeller, J. K. Hogan, R. A. Kowalski, S. M. Larson, G. J. Leonard, D.
    Rankin, R. L. Seaman, F. C. Shelly, K. W. Wierzchos.  1.5-m reflector +
    10K CCD.
H21 Astronomical Research Observatory, Westfield.  Observer R. Holmes.
    Measurers T. Linder, R. Holmes, L. Horn.  0.81-m f/4.0 astrograph + CCD.
I52 Steward Observatory, Mt. Lemmon Station.  Observer K. W. Wierzchos.
    Measurers T. Beuden, V. F. Carvajal, D. Fay, J. B. Fazekas, D. C. Fuls, A.
    R. Gibbs, A. D. Grauer, H. Groeller, J. K. Hogan, R. A. Kowalski, S. M.
    Larson, G. J. Leonard, D. Rankin, R. L. Seaman, F. C. Shelly, K. W.
    Wierzchos.  1.0-m prime focus + CCD.
J57 Centro Astronomico Alto Turia, Valencia.  Observer A. Fornas.  Measurers
    A. Fornas, G. Fornas, E. Arce, V. Mas.  0.43-m f/6.8 Reflector CDK + CMO.
J95 Great Shefford.  Observer P. Birtwhistle.  0.41-m f/6.3 Schmidt-Cassegrain
    + CCD.
M45 Starhopper Observatory, Sfantu Gheorghe.  Observer F. Ursache.  0.41-m
    f/7.5 reflector + CMO.
Q06 Tarui Observatory, Tarui.  Observer H. Watanabe.  0.35-m f/1.9 Schmidt-
    Cassegrain + CMO.
Orbital elements:
2024 JT17                                                Earth MOID = 0.0124 AU
Epoch 2024 Mar. 31.0 TT = JDT 2460400.5                 Veres                   
M 347.19415              (2000.0)            P               Q                  
n   0.33523045     Peri.  357.02441     -0.70387720     +0.70645321             
a   2.0522979      Node   228.22126     -0.64964032     -0.68239080             
e   0.5022743      Incl.    5.69745     -0.28727049     -0.18779419             
P   2.94           H   25.98          G   0.15           U   8                  
Residuals in seconds of arc
240515 G96  0.2-  0.3+    240515 J57  0.4+  0.4+    240516 H21  0.1+  0.1-
240515 G96  0.9-  0.5-    240515 M45  0.7-  0.4+    240516 H21  0.1-  0.1+
240515 G96  1.1+  0.0     240515 J95  0.1-  0.2-    240516 H21  0.1-  0.0
240515 I52  0.1+  0.1-    240515 M45  0.4-  0.4-    240516 Q06  0.3-  0.4-
240515 I52  0.0   0.1-    240515 J95  0.2+  0.1+    240516 Q06  0.3-  0.6+
240515 I52  0.1+  0.1+    240515 J95  0.2-  0.2-    240516 Q06  0.2-  0.3-
240515 I52  0.0   0.0     240515 J95  0.4-  0.5+
240515 J57  0.8+  0.0     240516 H21  0.2+  0.1-
Ephemeris:
2024 JT17                a,e,i = 2.05, 0.50, 6                   q = 1.0215
Date    TT    R. A. (2000) Decl.     Delta      r    Elong.  Phase     V
2024 04 16    08 53 35.3 -05 34 44   0.1323  1.0556   109.8    63.5    24.0
...
2024 05 01    09 20 59.0 -01 08 07   0.07383 1.0252   101.8    74.2    23.0
...
2024 05 09    10 14 37.5 +05 43 45   0.04331 1.0215   104.9    72.8    21.8
...
2024 05 15    12 23 20.8 +18 42 20   0.02639 1.0248   121.2    57.6    20.2
2024 05 16    13 01 20.3 +21 19 05   0.02512 1.0258   125.3    53.5    20.0
2024 05 17    13 43 37.5 +23 29 37   0.02456 1.0270   129.2    49.7    19.8
...
2024 05 23    17 14 09.7 +22 38 36   0.03526 1.0369   133.1    45.4    20.5
...
2024 05 31    18 42 16.5 +16 00 54   0.06527 1.0574   130.5    46.8    21.9
...
2024 06 15    19 17 30.4 +10 09 42   0.1298  1.1157   138.1    37.5    23.3
M. P. C. Staff               (C) Copyright 2024 MPC           M.P.E.C. 2024-K05
    
    
More information about the Iaude
mailing list